| time (UTC) | temp F | wind direction | speed knots | gust knots | rain 1hr in | rain 24hr in | rain mn in | humidity % | barometer mb |
| 20260509023052 | 52 | 241 | 0.0 | 0.0 | 0.00 | 0.14 | 0.05 | 81 | 1008.0 |
| 20260509021553 | 53 | 241 | 0.0 | 0.0 | 0.00 | 0.14 | 0.05 | 81 | 1007.9 |
| 20260509020051 | 53 | 241 | 0.0 | 0.0 | 0.00 | 0.14 | 0.05 | 81 | 1007.9 |
| 20260509014550 | 54 | 241 | 0.0 | 0.0 | 0.00 | 0.18 | 0.05 | 81 | 1007.9 |
| 20260509013101 | 54 | 241 | 0.0 | 0.0 | 0.00 | 0.18 | 0.05 | 82 | 1007.7 |
| 20260509011550 | 54 | 241 | 0.0 | 0.0 | 0.00 | 0.18 | 0.05 | 83 | 1007.7 |
| 20260509010054 | 55 | 241 | 0.0 | 0.0 | 0.00 | 0.18 | 0.05 | 83 | 1007.5 |
| 20260509004609 | 55 | 241 | 0.0 | 0.0 | 0.00 | 0.18 | 0.05 | 84 | 1007.5 |
| 20260509003051 | 56 | 240 | 0.0 | 0.0 | 0.00 | 0.18 | 0.05 | 84 | 1007.2 |
| 20260509001548 | 56 | 240 | 0.0 | 0.0 | 0.00 | 0.18 | 0.05 | 84 | 1007.3 |
| 20260509000049 | 57 | 240 | 0.0 | 0.9 | 0.00 | 0.18 | 0.05 | 84 | 1007.2 |
| 20260508234547 | 58 | 240 | 0.0 | 0.0 | 0.00 | 0.18 | 0.05 | 83 | 1007.3 |
| 20260508233053 | 58 | 240 | 0.0 | 0.9 | 0.00 | 0.18 | 0.05 | 84 | 1007.3 |
| 20260508231545 | 58 | 240 | 0.0 | 0.9 | 0.00 | 0.18 | 0.05 | 83 | 1007.5 |
| 20260508230055 | 58 | 240 | 0.0 | 1.7 | 0.00 | 0.18 | 0.05 | 83 | 1007.7 |
| 20260508224544 | 57 | 250 | 0.0 | 3.5 | 0.00 | 0.18 | 0.05 | 83 | 1007.6 |
| 20260508223044 | 57 | 267 | 0.0 | 2.6 | 0.00 | 0.18 | 0.05 | 83 | 1007.6 |
| 20260508221544 | 57 | 250 | 0.0 | 0.9 | 0.00 | 0.18 | 0.05 | 83 | 1007.6 |
| 20260508220050 | 58 | 250 | 0.0 | 2.6 | 0.00 | 0.18 | 0.05 | 83 | 1007.6 |
| 20260508214547 | 58 | 246 | 0.0 | 2.6 | 0.00 | 0.18 | 0.05 | 82 | 1007.7 |
| 20260508213041 | 59 | 254 | 0.0 | 1.7 | 0.00 | 0.18 | 0.05 | 81 | 1007.7 |
| 20260508211539 | 59 | 270 | 0.0 | 0.9 | 0.00 | 0.18 | 0.05 | 81 | 1007.6 |
| 20260508210039 | 59 | 271 | 0.0 | 0.9 | 0.00 | 0.18 | 0.05 | 82 | 1007.9 |
| 20260508204534 | 59 | 271 | 0.0 | 7.8 | 0.00 | 0.18 | 0.05 | 82 | 1008.1 |
| 20260508203031 | 59 | 166 | 0.0 | 1.7 | 0.00 | 0.18 | 0.05 | 81 | 1008.2 |
| 20260508201528 | 58 | 166 | 0.0 | 0.0 | 0.00 | 0.18 | 0.05 | 82 | 1008.5 |
| 20260508200036 | 56 | 165 | 0.0 | 0.0 | 0.00 | 0.18 | 0.05 | 83 | 1008.6 |
| 20260508194522 | 56 | 163 | 0.0 | 0.0 | 0.00 | 0.18 | 0.05 | 83 | 1008.9 |
| 20260508193019 | 56 | 163 | 0.0 | 0.0 | 0.00 | 0.18 | 0.05 | 83 | 1009.1 |
| 20260508191518 | 55 | 163 | 0.0 | 0.0 | 0.00 | 0.18 | 0.05 | 83 | 1009.6 |
| 20260508190015 | 55 | 163 | 0.0 | 0.0 | 0.00 | 0.18 | 0.05 | 83 | 1009.6 |
| 20260508184522 | 55 | 163 | 0.0 | 0.0 | 0.00 | 0.18 | 0.05 | 82 | 1010.0 |
| 20260508183011 | 55 | 163 | 0.0 | 0.0 | 0.00 | 0.18 | 0.05 | 82 | 1010.0 |
| 20260508181512 | 54 | 163 | 0.0 | 0.0 | 0.00 | 0.18 | 0.05 | 80 | 1010.1 |
| 20260508180005 | 53 | 192 | 0.0 | 0.0 | 0.00 | 0.18 | 0.05 | 80 | 1010.3 |
| 20260508174503 | 53 | 271 | 0.0 | 0.0 | 0.00 | 0.18 | 0.05 | 79 | 1010.5 |
| 20260508173100 | 52 | 271 | 0.0 | 0.9 | 0.01 | 0.18 | 0.05 | 78 | 1010.9 |
| 20260508171558 | 52 | 271 | 0.0 | 0.0 | 0.01 | 0.18 | 0.05 | 78 | 1010.9 |
| 20260508170059 | 52 | 271 | 0.0 | 0.0 | 0.01 | 0.18 | 0.05 | 78 | 1011.1 |
| 20260508164602 | 52 | 271 | 0.0 | 0.0 | 0.01 | 0.18 | 0.05 | 78 | 1011.4 |
| 20260508163059 | 52 | 271 | 0.0 | 0.0 | 0.00 | 0.17 | 0.04 | 78 | 1011.7 |
| 20260508161552 | 53 | 271 | 0.0 | 0.0 | 0.00 | 0.17 | 0.04 | 78 | 1011.8 |
| 20260508160049 | 53 | 271 | 0.0 | 0.0 | 0.00 | 0.17 | 0.04 | 77 | 1011.7 |
| 20260508154546 | 53 | 271 | 0.0 | 0.0 | 0.00 | 0.17 | 0.04 | 76 | 1011.5 |
| 20260508153044 | 53 | 271 | 0.0 | 0.0 | 0.01 | 0.17 | 0.04 | 75 | 1011.7 |
| 20260508151549 | 52 | 271 | 0.0 | 0.9 | 0.02 | 0.17 | 0.04 | 76 | 1011.8 |
| 20260508150042 | 50 | 271 | 0.0 | 0.0 | 0.02 | 0.17 | 0.04 | 77 | 1011.9 |
| 20260508144546 | 49 | 271 | 0.0 | 0.0 | 0.03 | 0.17 | 0.04 | 77 | 1012.0 |
| 20260508143036 | 49 | 271 | 0.0 | 0.0 | 0.02 | 0.16 | 0.03 | 77 | 1012.4 |
| 20260508141539 | 49 | 271 | 0.0 | 0.0 | 0.01 | 0.15 | 0.02 | 77 | 1012.5 |
| 20260508140042 | 49 | 271 | 0.0 | 0.0 | 0.01 | 0.15 | 0.02 | 77 | 1012.6 |
| 20260508134539 | 49 | 271 | 0.0 | 0.0 | 0.00 | 0.14 | 0.01 | 77 | 1012.3 |
| 20260508133051 | 49 | 271 | 0.0 | 0.0 | 0.00 | 0.14 | 0.01 | 77 | 1012.4 |
| 20260508131531 | 49 | 271 | 0.0 | 1.7 | 0.00 | 0.14 | 0.01 | 77 | 1012.3 |
| 20260508130030 | 49 | 243 | 0.0 | 0.0 | 0.00 | 0.14 | 0.01 | 77 | 1012.0 |
| 20260508124530 | 48 | 243 | 0.0 | 1.7 | 0.00 | 0.14 | 0.01 | 78 | 1012.2 |
| 20260508123025 | 48 | 243 | 0.0 | 0.0 | 0.00 | 0.14 | 0.01 | 78 | 1012.2 |
| 20260508121529 | 47 | 241 | 0.0 | 0.0 | 0.00 | 0.14 | 0.01 | 78 | 1012.1 |
| 20260508120021 | 46 | 241 | 0.0 | 0.9 | 0.00 | 0.14 | 0.01 | 79 | 1012.0 |
| 20260508114518 | 46 | 241 | 0.0 | 0.0 | 0.00 | 0.14 | 0.01 | 79 | 1012.0 |
| 20260508113016 | 45 | 241 | 0.0 | 0.0 | 0.00 | 0.14 | 0.01 | 79 | 1011.8 |
| 20260508111516 | 44 | 229 | 0.0 | 0.0 | 0.00 | 0.14 | 0.01 | 79 | 1011.7 |
| 20260508110032 | 44 | 229 | 0.0 | 0.0 | 0.00 | 0.14 | 0.01 | 79 | 1011.8 |
| 20260508104514 | 44 | 229 | 0.0 | 0.0 | 0.00 | 0.14 | 0.01 | 79 | 1011.7 |
| 20260508103013 | 45 | 229 | 0.0 | 0.0 | 0.00 | 0.14 | 0.01 | 79 | 1011.5 |
| 20260508101515 | 45 | 229 | 0.0 | 0.0 | 0.00 | 0.14 | 0.01 | 79 | 1011.2 |
| 20260508100017 | 45 | 229 | 0.0 | 0.0 | 0.00 | 0.14 | 0.01 | 79 | 1011.3 |
| 20260508094510 | 45 | 229 | 0.0 | 0.9 | 0.00 | 0.14 | 0.01 | 79 | 1011.4 |
| 20260508093009 | 45 | 228 | 0.0 | 1.7 | 0.00 | 0.14 | 0.01 | 79 | 1011.5 |
| 20260508091508 | 45 | 228 | 0.0 | 2.6 | 0.00 | 0.14 | 0.01 | 79 | 1011.5 |
| 20260508090014 | 44 | 203 | 0.0 | 1.7 | 0.00 | 0.14 | 0.01 | 80 | 1011.5 |
| 20260508084505 | 44 | 88 | 0.0 | 0.9 | 0.00 | 0.14 | 0.01 | 80 | 1011.5 |
| 20260508083007 | 44 | 83 | 0.0 | 0.9 | 0.00 | 0.14 | 0.01 | 80 | 1011.5 |
| 20260508081505 | 44 | 81 | 0.0 | 0.9 | 0.00 | 0.14 | 0.01 | 80 | 1011.6 |
| 20260508080003 | 43 | 81 | 0.0 | 0.0 | 0.01 | 0.14 | 0.01 | 81 | 1011.7 |
| 20260508074505 | 43 | 81 | 0.0 | 0.0 | 0.01 | 0.14 | 0.01 | 81 | 1011.5 |
| 20260508073107 | 43 | 81 | 0.0 | 0.0 | 0.01 | 0.14 | 0.01 | 81 | 1011.4 |
| 20260508071605 | 43 | 81 | 0.0 | 0.0 | 0.01 | 0.14 | 0.01 | 81 | 1011.5 |
| 20260508070058 | 43 | 81 | 0.0 | 0.0 | 0.00 | 0.13 | 0.00 | 81 | 1011.5 |
| 20260508064555 | 44 | 81 | 0.0 | 0.0 | 0.00 | 0.13 | 0.00 | 81 | 1011.6 |
| 20260508063054 | 44 | 81 | 0.0 | 0.0 | 0.00 | 0.13 | 0.00 | 81 | 1011.8 |
| 20260508061553 | 44 | 81 | 0.0 | 0.0 | 0.00 | 0.13 | 0.00 | 81 | 1011.9 |
| 20260508060051 | 44 | 81 | 0.0 | 0.0 | 0.00 | 0.13 | 0.00 | 81 | 1012.0 |
| 20260508054549 | 44 | 81 | 0.0 | 0.0 | 0.00 | 0.13 | 0.00 | 81 | 1012.1 |
| 20260508053112 | 44 | 81 | 0.0 | 0.0 | 0.00 | 0.13 | 0.00 | 81 | 1012.1 |
| 20260508051546 | 44 | 81 | 0.0 | 0.0 | 0.00 | 0.13 | 0.00 | 81 | 1012.2 |
| 20260508050048 | 45 | 81 | 0.0 | 0.0 | 0.00 | 0.13 | 0.00 | 82 | 1012.2 |
| 20260508044544 | 45 | 81 | 0.0 | 0.0 | 0.00 | 0.13 | 0.00 | 82 | 1012.2 |
| 20260508043042 | 45 | 80 | 0.0 | 0.0 | 0.00 | 0.13 | 0.00 | 82 | 1012.1 |
| 20260508041607 | 45 | 80 | 0.0 | 0.0 | 0.00 | 0.13 | 0.00 | 82 | 1012.1 |
| 20260508040053 | 45 | 80 | 0.0 | 0.0 | 0.00 | 0.13 | 0.00 | 83 | 1012.1 |
| 20260508034539 | 45 | 80 | 0.0 | 0.0 | 0.00 | 0.13 | 0.13 | 83 | 1012.1 |
| 20260508033038 | 46 | 80 | 0.0 | 0.0 | 0.00 | 0.13 | 0.13 | 83 | 1012.2 |
| 20260508031539 | 46 | 80 | 0.0 | 0.0 | 0.04 | 0.13 | 0.13 | 83 | 1012.4 |
| 20260508030038 | 46 | 80 | 0.0 | 0.0 | 0.08 | 0.13 | 0.13 | 84 | 1012.4 |
| 20260508024541 | 47 | 80 | 0.0 | 0.0 | 0.13 | 0.13 | 0.13 | 84 | 1012.3 |